Back to catalog

STARLINK-5658

AliveCommunicationsVLEO
NORAD 55338·PAYLOAD·🇺🇸 United States

Launched Jan 26, 2023 from Cape Canaveral Space Force Station

Loading…

Next Passes (next 24 hours)

TLE

FreshSource: CelesTrak SupGP

Epoch: Sep 14, 2026, 13:22 UTC

1 55338C 23013H   26257.55743056  .00037404  00000+0  13550-2 0  2570
2 55338  43.0031 317.0761 0001586 286.8754 120.2602 15.27554772    11

Track STARLINK-5658 in real time with AllMySat

Download on the App Store